Regional Weather Roundup
Issued by NWS New Orleans/Baton Rouge, LA

Home | Current Version | Previous Version | Graphics & Text | Print | Product List | Glossary On
Versions: 1 2 3 4 5 6 7 8 9 10 11 12 13 14 15 16 17 18 19 20 21 22 23 24 25 26 27 28 29 30 31 32 33 34 35 36 37 38 39 40 41 42 43 44 45 46 47 48 49 50
313
ASUS44 KLIX 312010
RWRLIX
NEW ORLEANS REGIONAL WEATHER ROUNDUP
NATIONAL WEATHER SERVICE NEW ORLEANS LA
300 PM CDT THU JUL 31 2014

NOTE: "FAIR" INDICATES FEW OR NO CLOUDS BELOW 12,000 FEET WITH NO
      SIGNIFICANT WEATHER AND/OR OBSTRUCTIONS TO VISIBILITY.
      SKY/WX - SKY CONDITION AND SIGNIFICANT WEATHER.
      TMP - AIR TEMPERATURE.     DP    - DEWPOINT TEMPERATURE.
      RH  - RELATIVE HUMIDITY.   PRES  - PRESSURE.
      HI  - HEAT INDEX.          WCI   - WIND CHILL INDEX.

*  THESE STATIONS ARE NOT NWS OR FAA STATIONS AND ARE NOT UNDER
   NWS QUALITY CONTROL.

LAZ038-040-048-061>063-065>067-069-312100-
SOUTHEAST LOUISIANA

CITY           SKY/WX    TMP DP  RH WIND       PRES   REMARKS
N.O. AUDUBON     N/A     91  67  44 MISG        N/A
N.O. INTL ARPT PTSUNNY   91  64  40 NE8       30.01F
N.O. LAKEFRONT MOSUNNY   87  62  43 NE6       30.02F
N.O. DOWNTOWN*   N/A     90  63  40 NE3       30.01F
SLIDELL        MOSUNNY   87  59  38 CALM      30.01F
BATON ROUGE    MOSUNNY   90  65  43 NE5       30.01F
BOOTHVILLE     PTSUNNY   83  68  60 E5        30.03F
BELLE CHASSE   PTSUNNY   86  66  51 S10       30.01F
BOGALUSA*        N/A     86  60  41 CALM      30.03F
GALLIANO*      NOT AVBL
NEW ROADS*       N/A     85  64  49 CALM      30.02F
GONZALES*        N/A     86  71  59 NW3       30.00F
HAMMOND*       MOSUNNY   90  57  33 CALM      30.03F
HOUMA*         MOSUNNY   90  64  43 CALM      30.02F
PORT FOURCHON* CLEAR     84  66  54 SE9       30.03F

$$

MSZ070-080>082-312100-
SOUTHERN MISSISSIPPI

CITY           SKY/WX    TMP DP  RH WIND       PRES   REMARKS
MCCOMB         PTSUNNY   84  60  44 SE5       30.04F
GULFPORT       MOSUNNY   90  60  36 S6        30.00F
BILOXI         MOSUNNY   87  63  44 SW9       30.00F
PASCAGOULA     MOSUNNY   88  60  38 NE6       30.00F
STENNIS ARPT*  MOSUNNY  N/A N/A N/A CALM      30.01F

$$

COASTAL OBSERVATIONS
LAKE AND NEARSHORE STATIONS

STATION/POSITION TIME  TEMP    WIND        PRES    WAVE
                       AIR SEA DIR/SP/G            HT/PER
                 (UTC) (F)     (DEG/KT/KT) (MB)    (FT/S)
PASCAGOULA       2000   85     180/  7/ 10 1015.7
WAVELAND YACHT   2000   84      20/  3/  6 1015.8
GRAND ISLE       2000   85 87  100/  3/  6 1017.3
SOUTHWEST PASS   2000   88 86  150/  2/  4 1017.1
NEW CANAL        2000   83 84   30/  7/  8 1016.7
SHELL BEACH      2000   85 83   60/  2/  3 1016.5

OFFSHORE STATIONS

STATION/POSITION TIME  TEMP    WIND        PRES    WAVE
                       AIR SEA DIR/SP/G            HT/PER
                 (UTC) (F)     (DEG/KT/KT) (MB)    (FT/S)
64 S DAUPHIN ISL 1907   82 87   40/  6/  8 1016.7

$$




USA.gov is the U.S. government's official web portal to all federal, state and local government web resources and services.